Amilcar Cabral International Airport


Codes: GVAC/SID
Name: Amilcar Cabral International Airport
City: Espargos
Country: Cape Verde
Elevation: 177 ft.
Wikipedia:

Photos at Amilcar Cabral International Airport


   Photos courtesy of SpottingLog. You can add your own sightings and photos by signing up for a free trial today.



6V-AMS, 04-Apr-2024
© Wout Goossens


Weather at Amilcar Cabral International Airport


Time (UTC)DescriptionTempratureWindCloud coverageVisibilityPressureHumidity
13-Jun-2024 03:00Broken Clouds23°C18 mph, N75%10000m1017hPa83%
13-Jun-2024 06:00Broken Clouds22°C16 mph, N68%10000m1017hPa85%
13-Jun-2024 09:00Broken Clouds22°C16 mph, N75%10000m1017hPa87%
13-Jun-2024 12:00Overcast Clouds22°C18 mph, N86%10000m1018hPa89%
13-Jun-2024 15:00Broken Clouds22°C18 mph, N71%10000m1016hPa89%
13-Jun-2024 18:00Scattered Clouds22°C20 mph, N35%10000m1015hPa90%
13-Jun-2024 21:00Clear Sky22°C20 mph, N3%10000m1016hPa91%
14-Jun-2024 00:00Few Clouds22°C22 mph, N21%10000m1016hPa90%
14-Jun-2024 03:00Overcast Clouds22°C22 mph, N98%10000m1015hPa89%
14-Jun-2024 06:00Broken Clouds21°C22 mph, N69%10000m1014hPa90%
14-Jun-2024 09:00Scattered Clouds21°C20 mph, NE37%10000m1016hPa90%
14-Jun-2024 12:00Few Clouds22°C20 mph, N23%10000m1017hPa89%
14-Jun-2024 15:00Clear Sky22°C20 mph, N3%10000m1015hPa89%
14-Jun-2024 18:00Few Clouds22°C20 mph, N12%10000m1014hPa89%
14-Jun-2024 21:00Few Clouds22°C18 mph, N19%10000m1015hPa89%
15-Jun-2024 00:00Scattered Clouds21°C20 mph, N37%10000m1015hPa90%
15-Jun-2024 03:00Few Clouds21°C20 mph, N14%10000m1013hPa90%
15-Jun-2024 06:00Scattered Clouds21°C18 mph, NE31%10000m1013hPa86%
15-Jun-2024 09:00Overcast Clouds22°C20 mph, NE97%10000m1015hPa84%
15-Jun-2024 12:00Broken Clouds22°C16 mph, NE77%10000m1016hPa87%
15-Jun-2024 15:00Few Clouds22°C18 mph, N13%10000m1014hPa86%
15-Jun-2024 18:00Few Clouds22°C16 mph, NE11%10000m1013hPa87%
15-Jun-2024 21:00Clear Sky22°C13 mph, NE4%10000m1014hPa90%
16-Jun-2024 00:00Clear Sky22°C13 mph, NE3%10000m1015hPa90%
16-Jun-2024 03:00Few Clouds21°C13 mph, NE21%10000m1013hPa89%
16-Jun-2024 06:00Few Clouds21°C13 mph, NE21%10000m1012hPa89%
16-Jun-2024 09:00Few Clouds21°C11 mph, NE13%10000m1014hPa87%
16-Jun-2024 12:00Scattered Clouds22°C9 mph, NE48%10000m1014hPa85%
16-Jun-2024 15:00Overcast Clouds22°C11 mph, NE100%10000m1013hPa85%
16-Jun-2024 18:00Overcast Clouds22°C13 mph, N100%10000m1012hPa85%
16-Jun-2024 21:00Broken Clouds22°C7 mph, NE54%10000m1014hPa89%
17-Jun-2024 00:00Broken Clouds22°C9 mph, NE68%10000m1014hPa89%
17-Jun-2024 03:00Overcast Clouds22°C9 mph, NE96%10000m1012hPa88%
17-Jun-2024 06:00Overcast Clouds22°C9 mph, NE95%10000m1013hPa89%
17-Jun-2024 09:00Overcast Clouds22°C9 mph, NE100%10000m1014hPa89%
17-Jun-2024 12:00Overcast Clouds22°C13 mph, NE90%10000m1015hPa87%
17-Jun-2024 15:00Broken Clouds22°C13 mph, NE60%10000m1014hPa88%
17-Jun-2024 18:00Scattered Clouds22°C13 mph, NE49%10000m1014hPa88%
17-Jun-2024 21:00Few Clouds22°C16 mph, NE21%10000m1014hPa91%
18-Jun-2024 00:00Few Clouds22°C13 mph, N19%10000m1015hPa91%